Flag for Germany Weather past 2 weeks in Freiberg, Saxony, Germany

Now
34 °F

Passing clouds.


Feels Like: 26 °F
Forecast: 30 / 36 °F
Wind: 9 mph from Southwest

Location: Dresden-Klotzsche

Current Time: Apr 2, 2015 at 2:40:17 AM

Latest Report: Apr 2, 2015 at 1:50 AM


Visibility: N/A

Pressure: 29.86 "Hg

Humidity: 87%

Dew point: 30 °F

Location of FreibergLocation

Historic Weather in Freiberg — Graph

°F

Freiberg temperature yesterday

Maximum temperature yesterday: 43 °F (at 2:20 PM)
Minimum temperature yesterday: 34 °F (at 2:50 PM)
Average temperature yesterday: 37 °F

Past Weeks' High & Low Weather Summary

 TemperatureHumidityPressure
High64 °F (Mar 25, 2:20 PM)100% (Mar 22, 1:50 AM)30.33 "Hg (Mar 22, 1:50 AM)
Low25 °F (Mar 23, 2:20 AM)26% (Mar 19, 2:50 PM)29.15 "Hg (Mar 31, 10:20 AM)
Average43 °F71%29.89 "Hg
* Reported Mar 18 12:20 AM — Apr 2 1:20 AM, Freiberg, Weather by CustomWeather, © 2015

Note: Actual official high and low records may vary slightly from our data, if they occured in-between our weather recording intervals... More about our weather records

Advertising

Freiberg weather history for previous 24 hours

 ConditionsComfort  
Time TempWeatherWind HumidityBarometerVisibility
1:20 AM
Thu, Apr 2
34 °FPassing clouds.12 mph93%29.89 "HgN/A
12:50 AM34 °FPassing clouds.14 mph87%29.89 "HgN/A
12:20 AM34 °FPassing clouds.15 mph93%29.89 "HgN/A
11:50 PM
Wed, Apr 1
34 °FPassing clouds.16 mph93%29.89 "Hg5 mi
11:20 PM34 °FPassing clouds.16 mph93%29.89 "Hg5 mi
10:50 PM36 °FPassing clouds.14 mph87%29.89 "HgN/A
10:20 PM36 °FPassing clouds.14 mph81%29.89 "HgN/A
9:50 PM36 °FPartly cloudy.12 mph87%29.89 "HgN/A
9:20 PM36 °FPassing clouds.13 mph87%29.86 "HgN/A
8:50 PM34 °FPassing clouds.12 mph93%29.86 "HgN/A
8:20 PM34 °FSnow flurries. Partly sunny.9 mph93%29.86 "HgN/A
7:50 PM36 °FPartly sunny.14 mph87%29.86 "HgN/A
7:20 PM37 °FPartly sunny.14 mph75%29.86 "HgN/A
6:50 PM39 °FPartly sunny.13 mph70%29.86 "HgN/A
6:20 PM39 °FBroken clouds.15 mph70%29.83 "HgN/A
5:50 PM39 °FPartly sunny.17 mph75%29.83 "HgN/A
5:20 PM39 °FBroken clouds.12 mph70%29.83 "HgN/A
4:50 PM37 °FSprinkles. Partly sunny.10 mph81%29.83 "HgN/A
4:20 PM37 °FBroken clouds.9 mph87%29.83 "HgN/A
3:50 PM36 °FSnow flurries. Partly sunny.18 mph87%29.83 "HgN/A
3:20 PM37 °FPartly sunny.15 mph75%29.80 "HgN/A
2:50 PM34 °FLight rain. Broken clouds.25 mph87%29.80 "Hg4 mi
2:20 PM43 °FScattered showers. Broken clouds.16 mph66%29.77 "HgN/A
1:50 PM41 °FPartly sunny.17 mph76%29.80 "HgN/A
1:20 PM39 °FPartly sunny.14 mph93%29.77 "HgN/A
12:50 PM39 °FLight rain. Partly sunny.15 mph87%29.77 "HgN/A
12:20 PM37 °FSprinkles. Broken clouds.16 mph87%29.77 "HgN/A
11:50 AM39 °FPartly sunny.17 mph75%29.77 "HgN/A
11:20 AM39 °FPartly sunny.17 mph75%29.74 "HgN/A
10:50 AM37 °FSprinkles. Partly sunny.17 mph81%29.74 "HgN/A
10:20 AM37 °FSprinkles. Broken clouds.17 mph75%29.74 "HgN/A
9:50 AM37 °FBroken clouds.18 mph75%29.71 "HgN/A
9:20 AM37 °FBroken clouds.18 mph75%29.71 "HgN/A
8:50 AM37 °FSprinkles. Partly sunny.20 mph81%29.68 "HgN/A
8:20 AM37 °FPartly sunny.20 mph75%29.68 "HgN/A
7:50 AM37 °FPartly sunny.20 mph75%29.65 "HgN/A
7:20 AM36 °FSnow flurries. Partly cloudy.18 mph87%29.65 "Hg4 mi
6:50 AM36 °FSprinkles. Passing clouds.20 mph81%29.62 "HgN/A
6:20 AM36 °FLight rain. Passing clouds.21 mph81%29.62 "HgN/A
5:50 AM36 °FPartly cloudy.18 mph81%29.62 "HgN/A
5:20 AM36 °FPartly cloudy.20 mph81%29.59 "HgN/A
4:50 AM36 °FPassing clouds.20 mph81%29.59 "HgN/A
4:20 AM37 °FPassing clouds.21 mph75%29.59 "HgN/A
3:50 AM39 °FPassing clouds.21 mph75%29.59 "HgN/A
3:20 AM39 °FPassing clouds.18 mph70%29.59 "HgN/A
2:50 AM39 °FPassing clouds.20 mph65%29.56 "HgN/A
2:20 AM39 °FPassing clouds.17 mph70%29.56 "HgN/A
Weather by CustomWeather, © 2015

See weather overviewHow to use our weather pages